Other Public Products
Issued by NWS Grand Forks, ND

Home | Current Version | Previous Version | Text Only | Print | Product List | Glossary On
Versions: 1 2 3 4 5 6 7 8 9 10 11 12 13 14 15 16 17 18 19 20 21 22 23 24 25 26 27 28 29 30 31 32 33 34 35 36 37 38 39 40 41 42 43 44 45 46 47 48 49 50
000
FPUS83 KFGF 311410
OPUFGF
PRAIRIE TO PINES WEATHER ROUNDUP
NATIONAL WEATHER SERVICE EASTERN NORTH DAKOTA/GRAND FORKS ND
900 AM CDT MON AUG 31 2015

 **SATELLITE DATA USED TO AUGMENT SKY COVER AT AUTOMATED STATIONS**
 *****  WEATHER ACROSS EASTERN NORTH DAKOTA  *****

CITY           SKY/WX    TMP DP  RH WIND       PRES   REMARKS
GRAND FORKS    CLOUDY    66  61  84 S9        29.65F
GRAND FORKS AF CLOUDY    68  63  83 S9        29.66R
GRAND CITY NWS   N/A     64 N/A N/A S9          N/A
BUXTON         NOT AVBL
DEVILS LAKE    CLOUDY    66  57  72 N8        29.72R
FARGO          SUNNY     70  61  73 S8        29.70R
WAHPETON ARPT  SUNNY     70  57  64 S13       29.74R
$$

 *****  WEATHER ACROSS CENTRAL AND WESTERN NORTH DAKOTA  *****

CITY           SKY/WX    TMP DP  RH WIND       PRES   REMARKS
JAMESTOWN      CLOUDY    69  64  84 SW7       29.71R
BISMARCK       CLOUDY    68  58  70 NW14G23   29.82R
MINOT          PTSUNNY   63  53  70 W7        29.79R
MINOT AFB      MOSUNNY   62  60  91 W6        29.78R
GARRISON         N/A     64  57  78 N6        29.83R
WILLISTON      SUNNY     61  49  64 SW10      29.86R
DICKINSON      SUNNY     60  52  74 NW9       29.89R
HETTINGER      PTSUNNY   60  51  72 NW16      29.91R
$$

 *****  OTHER OBSERVATIONS NORTHEAST NORTH DAKOTA  *****

CITY           SKY/WX    TMP DP  RH WIND       PRES   REMARKS
WALHALLA       FAIR      68  68 100 MISG      29.68R FOG
LANGDON        FAIR      68  63  83 NW12      29.72R HAZE
CAVALIER       FAIR      68  66  94 NW7       29.67R FOG
GRAFTON        FAIR      68  68 100 S6        29.66S
CANDO          NOT AVBL
FORT TOTTEN      N/A     68  62  82 NW6       29.95
ROLLA          FAIR      63  57  82 NW12G23   29.77R
RUGBY          FAIR      63  57  82 NW16G22   29.78R
 ***** THE ABOVE OBSERVATIONS ARE NON NWS ARE NOT QUALITY
        CONTROLLED AND MAY MIS-REPORT RAIN FOR SNOW...
$$

 *****  OTHER OBSERVATIONS SOUTHEAST NORTH DAKOTA *****

CITY           SKY/WX    TMP DP  RH WIND       PRES   REMARKS
COOPERSTOWN    NOT AVBL
VALLEY CITY    FAIR      68  66  94 SW17G24   29.70R
OAKES            N/A     72  70  94 S18G24    29.71S
GWINNER        FAIR      73  63  68 SW20G26   29.71R
SHEYENNE NWR     N/A     74  62  64 SW10      29.95S
BUFFALO        NOT AVBL
WYNDMERE         N/A     73  63  68 S7          N/A
 ***** THE ABOVE OBSERVATIONS ARE NON NWS ARE NOT QUALITY
       CONTROLLED AND MAY MIS-REPORT RAIN FOR SNOW...
$$

  *****  WEATHER ACROSS NORTHERN MINNESOTA  *****

CITY           SKY/WX    TMP DP  RH WIND       PRES   REMARKS
FLAG ISLAND    CLOUDY    68  63  83 S9        29.68R
WARROAD        PTSUNNY   70  63  78 SW13G21   29.70R
ROSEAU         PTSUNNY   70  63  78 SW10      29.69R
HALLOCK        CLOUDY    68  64  88 S6        29.64F
THF RVR FALLS  MOSUNNY  N/A N/A N/A S13G20    29.68F
HALSTAD        NOT AVBL
FOSSTON        MOSUNNY   70  57  64 S14G20    29.72S
BAUDETTE       PTSUNNY   68  60  75 S9        29.70S
WASKISH        MOSUNNY   70  61  73 S8        29.73S
CROOKSTON      MOSUNNY   70  61  73 S16G22    29.68F
$$
  *****  WEATHER ACROSS CENTRAL AND WEST MINNESOTA  *****

CITY           SKY/WX    TMP DP  RH WIND       PRES   REMARKS
BEMIDJI        MOSUNNY   69  58  68 S12G18    29.76R
PARK RAPIDS    SUNNY     69  59  70 S14       29.79S
WADENA         SUNNY     66  61  82 S16       29.77F
DETROIT LAKES  SUNNY     72  57  60 S14       29.77S
MOORHEAD       SUNNY     70  61  73 S14       29.71S
FERGUS FALLS   SUNNY     70  61  73 S13       29.76R
ELBOW LAKE     FAIR      68  62  79 S18G25    29.77R
MORRIS MN      SUNNY     68  64  88 S18       29.77F FOG
STAPLES        SUNNY     66  63  88 S14       29.82S
WHEATON        SUNNY     66  61  82 S12G20    29.75S
$$
  *****  WEATHER ELSEWHERE ACROSS MINNESOTA  *****

CITY           SKY/WX    TMP DP  RH WIND       PRES   REMARKS
DULUTH         MOSUNNY   66  62  87 SW17      29.89S
INTRNTL FALLS  MOSUNNY   68  61  78 VRB6      29.75R
ELY            SUNNY     68  57  68 S8        29.85S
CLOQUET        CLOUDY    66  63  88 S10G18    29.89S
BRAINERD       MOSUNNY   67  64  90 S13       29.86R FOG
HIBBING        MOSUNNY   64  61  90 VRB6      29.86S
ALEXANDRIA     SUNNY     68  63  84 S16       29.83F
SAINT CLOUD    MOSUNNY   67  65  93 S12       29.88S
MINNEAPOLIS    MOSUNNY   71  66  84 S9        29.94R
$$

  *****  WEATHER ACROSS SOUTH DAKOTA  *****

CITY           SKY/WX    TMP DP  RH WIND       PRES   REMARKS
SIOUX FALLS    MOSUNNY   68  65  90 S15       29.89S
BROOKINGS      PTSUNNY   66  63  88 S16G22    29.88F
WATERTOWN      SUNNY     69  64  84 S15G24    29.81R
HURON          SUNNY     69  64  84 S14G22    29.77R
SISSETON         N/A     74  60  61 SW21G31   29.71R
ABERDEEN       MOSUNNY   71  63  75 S12G22    29.73R
MITCHELL       SUNNY     69  65  86 S13G23    29.82S
PIERRE         CLOUDY    76  53  44 W13       29.74R
MOBRIDGE       CLOUDY    71  62  73 NW16G26   29.74R HAZE
RAPID CITY     CLOUDY    67  53  61 N14       29.95R
$$

  *****  SOME WEATHER IN NEARBY STATES *****

CITY           SKY/WX    TMP DP  RH WIND       PRES   REMARKS
GLASGOW MT     SUNNY     54  44  69 W9        29.87R
GREAT FALLS MT PTSUNNY   57  34  41 SW22G31   29.91R
CHEYENNE WY    CLOUDY    66  47  50 W10       30.14R
SCOTTSBLUFF NE LGT RAIN  69  56  62 W9        29.97R
OMAHA NE       MOSUNNY   70  68  93 S5        29.96F FOG
DES MOINES IA  SUNNY     71  67  87 S9        29.99R
DAVENPORT IA   SUNNY     70  68  93 SE5       30.06S FOG
CHICAGO IL     MOSUNNY   67  65  93 NW3       30.07S FOG
EAU CLAIRE WI  CLOUDY    66  64  93 S5        29.99S FOG
LA CROSSE WI   CLOUDY    66  64  93 S7        30.01S FOG
$$

  *****  SOME NATIONAL WEATHER *****

CITY           SKY/WX    TMP DP  RH WIND       PRES   REMARKS
LA GUARDIA NY  CLOUDY    80  67  64 CALM      30.03S
RALEIGH NC     CLOUDY    69  67  93 E7        30.13S FOG
ATLANTA GA     PTSUNNY   71  65  81 NE8       30.13R
NEW ORLEANS LA PTSUNNY   84  72  67 N5        30.06S
OKLAHOMA CITY  MOSUNNY   73  65  75 S13       30.00R
ALBUQUERQUE NM MOSUNNY   69  49  48 SE5       30.21R
SALT LAKE CITY MOSUNNY   65  41  41 SE8       30.07R
LOS ANGELES CA MOCLDY    70  64  81 SE5       29.88R
BOISE ID       CLEAR     53  41  63 S5        30.08R
SEATTLE WA     CLOUDY    63  50  62 S13       29.96S
$$

*** WEATHER ACROSS MANITOBA...SASKATCHEWAN AND ONTARIO ***
                ***ONTARIO***

CITY           SKY/WX    TMP DP  RH WIND       PRES   REMARKS
GERALDTON      CLOUDY    61  61 100 SE7       29.88F FOG
THUNDER BAY    CLOUDY    61  59  94 NE6       29.88R FOG
SIOUX LOOKOUT  CLOUDY    70  63  78 S7        29.73S
TORONTO        MOSUNNY   75  66  73 W13       30.04R
BIG TROUT LK   CLOUDY    55  54  94 SE14G24   29.67F
PICKLE LAKE    PTSUNNY   70  64  83 S12G17    29.71F
DRYDEN         SUNNY     68  61  77 S12G18    29.71S
KENORA         CLOUDY    68  61  77 S12       29.68R
$$
                *** MANITOBA***

CITY           SKY/WX    TMP DP  RH WIND       PRES   REMARKS
BRANDON        LGT RAIN  63  57  82 NW20G29   29.73R
DAUPHIN        CLOUDY    64  57  77 W15G21    29.65S
ISLAND LAKE    CLOUDY    64  61  88 VRB2      29.51F
PILOT MOUND      N/A     63  59  88 NW7         N/A
THE PAS        PTSUNNY   57  55  94 SE5       29.50S
THOMPSON       DRIZZLE   54  54 100 E6        29.52F FOG
WINNIPEG       LGT RAIN  68  66  94 NW7       29.67R
LYNN LAKE      CLOUDY    59  57  94 MISG      29.50S FOG
CHURCHILL      CLOUDY    48  46  93 SE25G31   29.69F
GILLAM         DRIZZLE   48  48 100 E7        29.59  FOG
$$
                ***SASKATCHEWAN***

CITY           SKY/WX    TMP DP  RH WIND       PRES   REMARKS
ESTEVAN        MOSUNNY   59  54  82 SW12G21   29.78R
KINDERSLEY     PTSUNNY   54  37  54 W13G20    29.64R
LLOYDMINSTER   MOSUNNY   52  45  76 W13       29.55R
PRINCE ALBERT  MOSUNNY   57  48  72 SW7       29.50S
REGINA         MOSUNNY   55  50  82 SW17G24   29.70R


USA.gov is the U.S. government's official web portal to all federal, state and local government web resources and services.